Year,Month,Day,Hour,Minute,Value (Times are PST for temperature in C)
2018,06,17,00,00,17.10
2018,06,17,00,01,17.10
2018,06,17,00,02,17.00
2018,06,17,00,03,17.00
2018,06,17,00,04,17.00
2018,06,17,00,05,17.00
2018,06,17,00,06,17.00
2018,06,17,00,07,16.90
2018,06,17,00,08,16.90
2018,06,17,00,09,16.90
2018,06,17,00,10,16.90
2018,06,17,00,11,16.90
2018,06,17,00,12,16.90
2018,06,17,00,13,16.90
2018,06,17,00,14,16.90
2018,06,17,00,15,16.90
2018,06,17,00,16,16.90
2018,06,17,00,17,16.90
2018,06,17,00,18,17.00
2018,06,17,00,19,17.00
2018,06,17,00,20,17.00
2018,06,17,00,21,17.00
2018,06,17,00,22,17.00
2018,06,17,00,23,17.00
2018,06,17,00,24,17.00
2018,06,17,00,25,17.00
2018,06,17,00,26,17.00
2018,06,17,00,27,17.00
2018,06,17,00,28,17.00
2018,06,17,00,29,17.00
2018,06,17,00,30,17.00
2018,06,17,00,31,17.00
2018,06,17,00,32,17.00
2018,06,17,00,33,16.90
2018,06,17,00,34,16.90
2018,06,17,00,35,16.90
2018,06,17,00,36,16.90
2018,06,17,00,37,16.90
2018,06,17,00,38,16.90
2018,06,17,00,39,16.90
2018,06,17,00,40,16.90
2018,06,17,00,41,16.90
2018,06,17,00,42,16.90
2018,06,17,00,43,16.90
2018,06,17,00,44,16.90
2018,06,17,00,45,16.90
2018,06,17,00,46,16.90
2018,06,17,00,47,16.90
2018,06,17,00,48,16.90
2018,06,17,00,49,16.90
2018,06,17,00,50,16.90
2018,06,17,00,51,16.90
2018,06,17,00,52,16.90
2018,06,17,00,53,16.90
2018,06,17,00,54,16.80
2018,06,17,00,55,16.80
2018,06,17,00,56,16.80
2018,06,17,00,57,16.80
2018,06,17,00,58,16.80
2018,06,17,00,59,16.80
2018,06,17,01,00,16.80
2018,06,17,01,01,16.70
2018,06,17,01,02,16.70
2018,06,17,01,03,16.70
2018,06,17,01,04,16.70
2018,06,17,01,05,16.60
2018,06,17,01,06,16.60
2018,06,17,01,07,16.60
2018,06,17,01,08,16.60
2018,06,17,01,09,16.50
2018,06,17,01,10,16.50
2018,06,17,01,11,16.50
2018,06,17,01,12,16.40
2018,06,17,01,13,16.40
2018,06,17,01,14,16.40
2018,06,17,01,15,16.40
2018,06,17,01,16,16.40
2018,06,17,01,17,16.30
2018,06,17,01,18,16.30
2018,06,17,01,19,16.30
2018,06,17,01,20,16.30
2018,06,17,01,21,16.30
2018,06,17,01,22,16.20
2018,06,17,01,23,16.20
2018,06,17,01,24,16.20
2018,06,17,01,25,16.20
2018,06,17,01,26,16.10
2018,06,17,01,27,16.10
2018,06,17,01,28,16.00
2018,06,17,01,29,16.00
2018,06,17,01,30,15.90
2018,06,17,01,31,15.90
2018,06,17,01,32,15.90
2018,06,17,01,33,15.80
2018,06,17,01,34,15.80
2018,06,17,01,35,15.80
2018,06,17,01,36,15.70
2018,06,17,01,37,15.70
2018,06,17,01,38,15.70
2018,06,17,01,39,15.60
2018,06,17,01,40,15.60
2018,06,17,01,41,15.60
2018,06,17,01,42,15.50
2018,06,17,01,43,15.50
2018,06,17,01,44,15.50
2018,06,17,01,45,15.40
2018,06,17,01,46,15.40
2018,06,17,01,47,15.40
2018,06,17,01,48,15.40
2018,06,17,01,49,15.30
2018,06,17,01,50,15.30
2018,06,17,01,51,15.30
2018,06,17,01,52,15.30
2018,06,17,01,53,15.30
2018,06,17,01,54,15.30
2018,06,17,01,55,15.30
2018,06,17,01,56,15.20
2018,06,17,01,57,15.20
2018,06,17,01,58,15.20
2018,06,17,01,59,15.20
2018,06,17,02,00,15.20
2018,06,17,02,01,15.20
2018,06,17,02,02,15.20
2018,06,17,02,03,15.20
2018,06,17,02,04,15.20
2018,06,17,02,05,15.20
2018,06,17,02,06,15.20
2018,06,17,02,07,15.20
2018,06,17,02,08,15.20
2018,06,17,02,09,15.20
2018,06,17,02,10,15.20
2018,06,17,02,11,15.20
2018,06,17,02,12,15.10
2018,06,17,02,13,15.10
2018,06,17,02,14,15.10
2018,06,17,02,15,15.10
2018,06,17,02,16,15.10
2018,06,17,02,17,15.10
2018,06,17,02,18,15.10
2018,06,17,02,19,15.10
2018,06,17,02,20,15.00
2018,06,17,02,21,15.00
2018,06,17,02,22,15.00
2018,06,17,02,23,14.90
2018,06,17,02,24,14.90
2018,06,17,02,25,14.80
2018,06,17,02,26,14.80
2018,06,17,02,27,14.80
2018,06,17,02,28,14.70
2018,06,17,02,29,14.70
2018,06,17,02,30,14.60
2018,06,17,02,31,14.60
2018,06,17,02,32,14.50
2018,06,17,02,33,14.50
2018,06,17,02,34,14.40
2018,06,17,02,35,14.40
2018,06,17,02,36,14.40
2018,06,17,02,37,14.30
2018,06,17,02,38,14.30
2018,06,17,02,39,14.30
2018,06,17,02,40,14.30
2018,06,17,02,41,14.20
2018,06,17,02,42,14.20
2018,06,17,02,43,14.20
2018,06,17,02,44,14.20
2018,06,17,02,45,14.10
2018,06,17,02,46,14.10
2018,06,17,02,47,14.10
2018,06,17,02,48,14.00
2018,06,17,02,49,14.00
2018,06,17,02,50,14.00
2018,06,17,02,51,14.00
2018,06,17,02,52,13.90
2018,06,17,02,53,13.90
2018,06,17,02,54,13.90
2018,06,17,02,55,13.90
2018,06,17,02,56,13.90
2018,06,17,02,57,13.90
2018,06,17,02,58,13.90
2018,06,17,02,59,13.90
2018,06,17,03,00,13.80
2018,06,17,03,01,13.80
2018,06,17,03,02,13.80
2018,06,17,03,03,13.80
2018,06,17,03,04,13.80
2018,06,17,03,05,13.80
2018,06,17,03,06,13.80
2018,06,17,03,07,13.80
2018,06,17,03,08,13.80
2018,06,17,03,09,13.80
2018,06,17,03,10,13.70
2018,06,17,03,11,13.70
2018,06,17,03,12,13.70
2018,06,17,03,13,13.70
2018,06,17,03,14,13.70
2018,06,17,03,15,13.70
2018,06,17,03,16,13.70
2018,06,17,03,17,13.60
2018,06,17,03,18,13.60
2018,06,17,03,19,13.60
2018,06,17,03,20,13.60
2018,06,17,03,21,13.60
2018,06,17,03,22,13.50
2018,06,17,03,23,13.50
2018,06,17,03,24,13.50
2018,06,17,03,25,13.40
2018,06,17,03,26,13.40
2018,06,17,03,27,13.40
2018,06,17,03,28,13.40
2018,06,17,03,29,13.30
2018,06,17,03,30,13.30
2018,06,17,03,31,13.30
2018,06,17,03,32,13.30
2018,06,17,03,33,13.30
2018,06,17,03,34,13.20
2018,06,17,03,35,13.20
2018,06,17,03,36,13.20
2018,06,17,03,37,13.20
2018,06,17,03,38,13.10
2018,06,17,03,39,13.10
2018,06,17,03,40,13.10
2018,06,17,03,41,13.10
2018,06,17,03,42,13.00
2018,06,17,03,43,13.00
2018,06,17,03,44,13.00
2018,06,17,03,45,12.90
2018,06,17,03,46,12.90
2018,06,17,03,47,12.90
2018,06,17,03,48,12.90
2018,06,17,03,49,12.80
2018,06,17,03,50,12.80
2018,06,17,03,51,12.80
2018,06,17,03,52,12.80
2018,06,17,03,53,12.80
2018,06,17,03,54,12.80
2018,06,17,03,55,12.80
2018,06,17,03,56,12.80
2018,06,17,03,57,12.70
2018,06,17,03,58,12.70
2018,06,17,03,59,12.70
2018,06,17,04,00,12.70
2018,06,17,04,01,12.70
2018,06,17,04,02,12.70
2018,06,17,04,03,12.70
2018,06,17,04,04,12.70
2018,06,17,04,05,12.70
2018,06,17,04,06,12.70
2018,06,17,04,07,12.70
2018,06,17,04,08,12.60
2018,06,17,04,09,12.60
2018,06,17,04,10,12.60
2018,06,17,04,11,12.60
2018,06,17,04,12,12.60
2018,06,17,04,13,12.60
2018,06,17,04,14,12.60
2018,06,17,04,15,12.60
2018,06,17,04,16,12.60
2018,06,17,04,17,12.50
2018,06,17,04,18,12.50
2018,06,17,04,19,12.50
2018,06,17,04,20,12.50
2018,06,17,04,21,12.50
2018,06,17,04,22,12.40
2018,06,17,04,23,12.40
2018,06,17,04,24,12.40
2018,06,17,04,25,12.40
2018,06,17,04,26,12.40
2018,06,17,04,27,12.40
2018,06,17,04,28,12.40
2018,06,17,04,29,12.40
2018,06,17,04,30,12.30
2018,06,17,04,31,12.30
2018,06,17,04,32,12.30
2018,06,17,04,33,12.30
2018,06,17,04,34,12.30
2018,06,17,04,35,12.30
2018,06,17,04,36,12.30
2018,06,17,04,37,12.30
2018,06,17,04,38,12.30
2018,06,17,04,39,12.30
2018,06,17,04,40,12.20
2018,06,17,04,41,12.20
2018,06,17,04,42,12.20
2018,06,17,04,43,12.20
2018,06,17,04,44,12.20
2018,06,17,04,45,12.20
2018,06,17,04,46,12.20
2018,06,17,04,47,12.10
2018,06,17,04,48,12.10
2018,06,17,04,49,12.10
2018,06,17,04,50,12.10
2018,06,17,04,51,12.10
2018,06,17,04,52,12.10
2018,06,17,04,53,12.10
2018,06,17,04,54,12.10
2018,06,17,04,55,12.10
2018,06,17,04,56,12.10
2018,06,17,04,57,12.10
2018,06,17,04,58,12.00
2018,06,17,04,59,12.00
2018,06,17,05,00,12.00
2018,06,17,05,01,12.00
2018,06,17,05,02,12.00
2018,06,17,05,03,12.00
2018,06,17,05,04,12.00
2018,06,17,05,05,12.00
2018,06,17,05,06,11.90
2018,06,17,05,07,11.90
2018,06,17,05,08,11.90
2018,06,17,05,09,11.90
2018,06,17,05,10,11.90
2018,06,17,05,11,11.90
2018,06,17,05,12,12.00
2018,06,17,05,13,12.00
2018,06,17,05,14,12.00
2018,06,17,05,15,12.00
2018,06,17,05,16,12.00
2018,06,17,05,17,12.00
2018,06,17,05,18,12.00
2018,06,17,05,19,12.00
2018,06,17,05,20,12.10
2018,06,17,05,21,12.00
2018,06,17,05,22,12.00
2018,06,17,05,23,12.00
2018,06,17,05,24,12.00
2018,06,17,05,25,12.00
2018,06,17,05,26,12.00
2018,06,17,05,27,12.00
2018,06,17,05,28,12.00
2018,06,17,05,29,11.90
2018,06,17,05,30,11.90
2018,06,17,05,31,11.90
2018,06,17,05,32,11.90
2018,06,17,05,33,11.90
2018,06,17,05,34,11.90
2018,06,17,05,35,11.90
2018,06,17,05,36,11.90
2018,06,17,05,37,11.90
2018,06,17,05,38,11.80
2018,06,17,05,39,11.80
2018,06,17,05,40,11.80
2018,06,17,05,41,11.80
2018,06,17,05,42,11.80
2018,06,17,05,43,11.80
2018,06,17,05,44,11.80
2018,06,17,05,45,11.80
2018,06,17,05,46,11.80
2018,06,17,05,47,11.80
2018,06,17,05,48,11.80
2018,06,17,05,49,11.80
2018,06,17,05,50,11.80
2018,06,17,05,51,11.80
2018,06,17,05,52,11.80
2018,06,17,05,53,11.80
2018,06,17,05,54,11.80
2018,06,17,05,55,11.80
2018,06,17,05,56,11.80
2018,06,17,05,57,11.80
2018,06,17,05,58,11.80
2018,06,17,05,59,11.70
2018,06,17,06,00,11.70
2018,06,17,06,01,11.70
2018,06,17,06,02,11.70
2018,06,17,06,03,11.70
2018,06,17,06,04,11.70
2018,06,17,06,05,11.70
2018,06,17,06,06,11.70
2018,06,17,06,07,11.70
2018,06,17,06,08,11.70
2018,06,17,06,09,11.70
2018,06,17,06,10,11.70
2018,06,17,06,11,11.70
2018,06,17,06,12,11.70
2018,06,17,06,13,11.70
2018,06,17,06,14,11.80
2018,06,17,06,15,11.80
2018,06,17,06,16,11.80
2018,06,17,06,17,11.80
2018,06,17,06,18,11.80
2018,06,17,06,19,11.80
2018,06,17,06,20,11.80
2018,06,17,06,21,11.80
2018,06,17,06,22,11.80
2018,06,17,06,23,11.80
2018,06,17,06,24,11.90
2018,06,17,06,25,11.90
2018,06,17,06,26,11.90
2018,06,17,06,27,11.90
2018,06,17,06,28,12.00
2018,06,17,06,29,12.00
2018,06,17,06,30,12.10
2018,06,17,06,31,12.10
2018,06,17,06,32,12.20
2018,06,17,06,33,12.20
2018,06,17,06,34,12.30
2018,06,17,06,35,12.30
2018,06,17,06,36,12.40
2018,06,17,06,37,12.40
2018,06,17,06,38,12.50
2018,06,17,06,39,12.60
2018,06,17,06,40,12.60
2018,06,17,06,41,12.70
2018,06,17,06,42,12.70
2018,06,17,06,43,12.80
2018,06,17,06,44,12.80
2018,06,17,06,45,12.90
2018,06,17,06,46,12.90
2018,06,17,06,47,13.00
2018,06,17,06,48,13.00
2018,06,17,06,49,13.10
2018,06,17,06,50,13.20
2018,06,17,06,51,13.20
2018,06,17,06,52,13.30
2018,06,17,06,53,13.30
2018,06,17,06,54,13.40
2018,06,17,06,55,13.40
2018,06,17,06,56,13.50
2018,06,17,06,57,13.60
2018,06,17,06,58,13.60
2018,06,17,06,59,13.70
2018,06,17,07,00,13.80
2018,06,17,07,01,13.80
2018,06,17,07,02,13.90
2018,06,17,07,03,13.90
2018,06,17,07,04,14.00
2018,06,17,07,05,14.00
2018,06,17,07,06,14.10
2018,06,17,07,07,14.20
2018,06,17,07,08,14.20
2018,06,17,07,09,14.30
2018,06,17,07,10,14.30
2018,06,17,07,11,14.40
2018,06,17,07,12,14.40
2018,06,17,07,13,14.50
2018,06,17,07,14,14.60
2018,06,17,07,15,14.60
2018,06,17,07,16,14.70
2018,06,17,07,17,14.80
2018,06,17,07,18,14.80
2018,06,17,07,19,14.90
2018,06,17,07,20,15.00
2018,06,17,07,21,15.00
2018,06,17,07,22,15.10
2018,06,17,07,23,15.20
2018,06,17,07,24,15.20
2018,06,17,07,25,15.30
2018,06,17,07,26,15.30
2018,06,17,07,27,15.40
2018,06,17,07,28,15.40
2018,06,17,07,29,15.50
2018,06,17,07,30,15.50
2018,06,17,07,31,15.60
2018,06,17,07,32,15.60
2018,06,17,07,33,15.70
2018,06,17,07,34,15.70
2018,06,17,07,35,15.80
2018,06,17,07,36,15.80
2018,06,17,07,37,15.90
2018,06,17,07,38,16.00
2018,06,17,07,39,16.10
2018,06,17,07,40,16.10
2018,06,17,07,41,16.20
2018,06,17,07,42,16.20
2018,06,17,07,43,16.30
2018,06,17,07,44,16.30
2018,06,17,07,45,16.40
2018,06,17,07,46,16.50
2018,06,17,07,47,16.50
2018,06,17,07,48,16.60
2018,06,17,07,49,16.60
2018,06,17,07,50,16.70
2018,06,17,07,51,16.70
2018,06,17,07,52,16.80
2018,06,17,07,53,16.80
2018,06,17,07,54,16.90
2018,06,17,07,55,16.90
2018,06,17,07,56,17.00
2018,06,17,07,57,17.00
2018,06,17,07,58,17.10
2018,06,17,07,59,17.20
2018,06,17,08,00,17.20
2018,06,17,08,01,17.30
2018,06,17,08,02,17.30
2018,06,17,08,03,17.40
2018,06,17,08,04,17.50
2018,06,17,08,05,17.50
2018,06,17,08,06,17.60
2018,06,17,08,07,17.60
2018,06,17,08,08,17.70
2018,06,17,08,09,17.80
2018,06,17,08,10,17.80
2018,06,17,08,11,17.90
2018,06,17,08,12,17.90
2018,06,17,08,13,18.00
2018,06,17,08,14,18.10
2018,06,17,08,15,18.10
2018,06,17,08,16,18.20
2018,06,17,08,17,18.30
2018,06,17,08,18,18.30
2018,06,17,08,19,18.40
2018,06,17,08,20,18.40
2018,06,17,08,21,18.40
2018,06,17,08,22,18.50
2018,06,17,08,23,18.60
2018,06,17,08,24,18.60
2018,06,17,08,25,18.70
2018,06,17,08,26,18.70
2018,06,17,08,27,18.80
2018,06,17,08,28,18.80
2018,06,17,08,29,18.90
2018,06,17,08,30,19.00
2018,06,17,08,31,19.10
2018,06,17,08,32,19.20
2018,06,17,08,33,19.20
2018,06,17,08,34,19.30
2018,06,17,08,35,19.30
2018,06,17,08,36,19.40
2018,06,17,08,37,19.50
2018,06,17,08,38,19.50
2018,06,17,08,39,19.50
2018,06,17,08,40,19.60
2018,06,17,08,41,19.70
2018,06,17,08,42,19.70
2018,06,17,08,43,19.80
2018,06,17,08,44,19.90
2018,06,17,08,45,20.00
2018,06,17,08,46,20.00
2018,06,17,08,47,20.10
2018,06,17,08,48,20.20
2018,06,17,08,49,20.30
2018,06,17,08,50,20.30
2018,06,17,08,51,20.40
2018,06,17,08,52,20.50
2018,06,17,08,53,20.60
2018,06,17,08,54,20.70
2018,06,17,08,55,20.80
2018,06,17,08,56,20.90
2018,06,17,08,57,21.00
2018,06,17,08,58,21.10
2018,06,17,08,59,21.20
2018,06,17,09,00,21.30
2018,06,17,09,01,21.40
2018,06,17,09,02,21.50
2018,06,17,09,03,21.60
2018,06,17,09,04,21.70
2018,06,17,09,05,21.70
2018,06,17,09,06,21.80
2018,06,17,09,07,21.80
2018,06,17,09,08,21.80
2018,06,17,09,09,21.80
2018,06,17,09,10,21.70
2018,06,17,09,11,21.70
2018,06,17,09,12,21.60
2018,06,17,09,13,21.50
2018,06,17,09,14,21.40
2018,06,17,09,15,21.30
2018,06,17,09,16,21.20
2018,06,17,09,17,21.10
2018,06,17,09,18,21.00
2018,06,17,09,19,20.90
2018,06,17,09,20,20.90
2018,06,17,09,21,20.90
2018,06,17,09,22,20.90
2018,06,17,09,23,20.90
2018,06,17,09,24,21.00
2018,06,17,09,25,21.00
2018,06,17,09,26,21.00
2018,06,17,09,27,21.10
2018,06,17,09,28,21.20
2018,06,17,09,29,21.20
2018,06,17,09,30,21.30
2018,06,17,09,31,21.40
2018,06,17,09,32,21.40
2018,06,17,09,33,21.40
2018,06,17,09,34,21.40
2018,06,17,09,35,21.40
2018,06,17,09,36,21.40
2018,06,17,09,37,21.40
2018,06,17,09,38,21.40
2018,06,17,09,39,21.40
2018,06,17,09,40,21.40
2018,06,17,09,41,21.40
2018,06,17,09,42,21.40
2018,06,17,09,43,21.40
2018,06,17,09,44,21.40
2018,06,17,09,45,21.40
2018,06,17,09,46,21.30
2018,06,17,09,47,21.30
2018,06,17,09,48,21.30
2018,06,17,09,49,21.30
2018,06,17,09,50,21.20
2018,06,17,09,51,21.20
2018,06,17,09,52,21.20
2018,06,17,09,53,21.20
2018,06,17,09,54,21.10
2018,06,17,09,55,21.00
2018,06,17,09,56,21.00
2018,06,17,09,57,20.90
2018,06,17,09,58,20.80
2018,06,17,09,59,20.70
2018,06,17,10,00,20.60
2018,06,17,10,01,20.60
2018,06,17,10,02,20.60
2018,06,17,10,03,20.60
2018,06,17,10,04,20.70
2018,06,17,10,05,20.80
2018,06,17,10,06,20.80
2018,06,17,10,07,20.90
2018,06,17,10,08,21.00
2018,06,17,10,09,21.10
2018,06,17,10,10,21.20
2018,06,17,10,11,21.40
2018,06,17,10,12,21.50
2018,06,17,10,13,21.70
2018,06,17,10,14,21.80
2018,06,17,10,15,21.90
2018,06,17,10,16,22.00
2018,06,17,10,17,22.10
2018,06,17,10,18,22.20
2018,06,17,10,19,22.30
2018,06,17,10,20,22.30
2018,06,17,10,21,22.40
2018,06,17,10,22,22.50
2018,06,17,10,23,22.60
2018,06,17,10,24,22.60
2018,06,17,10,25,22.70
2018,06,17,10,26,22.80
2018,06,17,10,27,22.80
2018,06,17,10,28,22.90
2018,06,17,10,29,22.90
2018,06,17,10,30,22.90
2018,06,17,10,31,23.00
2018,06,17,10,32,23.00
2018,06,17,10,33,23.00
2018,06,17,10,34,23.10
2018,06,17,10,35,23.10
2018,06,17,10,36,23.10
2018,06,17,10,37,23.10
2018,06,17,10,38,23.20
2018,06,17,10,39,23.20
2018,06,17,10,40,23.20
2018,06,17,10,41,23.20
2018,06,17,10,42,23.20
2018,06,17,10,43,23.30
2018,06,17,10,44,23.30
2018,06,17,10,45,23.30
2018,06,17,10,46,23.30
2018,06,17,10,47,23.40
2018,06,17,10,48,23.40
2018,06,17,10,49,23.50
2018,06,17,10,50,23.50
2018,06,17,10,51,23.60
2018,06,17,10,52,23.70
2018,06,17,10,53,23.70
2018,06,17,10,54,23.80
2018,06,17,10,55,23.90
2018,06,17,10,56,23.90
2018,06,17,10,57,24.00
2018,06,17,10,58,24.00
2018,06,17,10,59,24.10
2018,06,17,11,00,24.20
2018,06,17,11,01,24.20
2018,06,17,11,02,24.30
2018,06,17,11,03,24.30
2018,06,17,11,04,24.30
2018,06,17,11,05,24.20
2018,06,17,11,06,24.20
2018,06,17,11,07,24.20
2018,06,17,11,08,24.20
2018,06,17,11,09,24.20
2018,06,17,11,10,24.30
2018,06,17,11,11,24.30
2018,06,17,11,12,24.40
2018,06,17,11,13,24.40
2018,06,17,11,14,24.50
2018,06,17,11,15,24.50
2018,06,17,11,16,24.50
2018,06,17,11,17,24.60
2018,06,17,11,18,24.60
2018,06,17,11,19,24.60
2018,06,17,11,20,24.60
2018,06,17,11,21,24.60
2018,06,17,11,22,24.60
2018,06,17,11,23,24.60
2018,06,17,11,24,24.60
2018,06,17,11,25,24.60
2018,06,17,11,26,24.60
2018,06,17,11,27,24.60
2018,06,17,11,28,24.60
2018,06,17,11,29,24.60
2018,06,17,11,30,24.60
2018,06,17,11,31,24.60
2018,06,17,11,32,24.60
2018,06,17,11,33,24.60
2018,06,17,11,34,24.60
2018,06,17,11,35,24.70
2018,06,17,11,36,24.70
2018,06,17,11,37,24.80
2018,06,17,11,38,24.90
2018,06,17,11,39,24.90
2018,06,17,11,40,25.00
2018,06,17,11,41,25.00
2018,06,17,11,42,25.10
2018,06,17,11,43,25.20
2018,06,17,11,44,25.20
2018,06,17,11,45,25.30
2018,06,17,11,46,25.30
2018,06,17,11,47,25.40
2018,06,17,11,48,25.40
2018,06,17,11,49,25.50
2018,06,17,11,50,25.50
2018,06,17,11,51,25.40
2018,06,17,11,52,25.40
2018,06,17,11,53,25.40
2018,06,17,11,54,25.30
2018,06,17,11,55,25.10
2018,06,17,11,56,25.10
2018,06,17,11,57,25.00
2018,06,17,11,58,24.80
2018,06,17,11,59,24.80
2018,06,17,12,00,24.70
2018,06,17,12,01,24.50
2018,06,17,12,02,24.30
2018,06,17,12,03,24.20
2018,06,17,12,04,24.10
2018,06,17,12,05,23.90
2018,06,17,12,06,23.80
2018,06,17,12,07,23.70
2018,06,17,12,08,23.60
2018,06,17,12,09,23.50
2018,06,17,12,10,23.50
2018,06,17,12,11,23.40
2018,06,17,12,12,23.30
2018,06,17,12,13,23.30
2018,06,17,12,14,23.30
2018,06,17,12,15,23.20
2018,06,17,12,16,23.20
2018,06,17,12,17,23.20
2018,06,17,12,18,23.20
2018,06,17,12,19,23.10
2018,06,17,12,20,23.10
2018,06,17,12,21,23.10
2018,06,17,12,22,23.10
2018,06,17,12,23,23.00
2018,06,17,12,24,23.00
2018,06,17,12,25,23.00
2018,06,17,12,26,23.00
2018,06,17,12,27,23.00
2018,06,17,12,28,23.10
2018,06,17,12,29,23.10
2018,06,17,12,30,23.10
2018,06,17,12,31,23.10
2018,06,17,12,32,23.20
2018,06,17,12,33,23.20
2018,06,17,12,34,23.10
2018,06,17,12,35,23.20
2018,06,17,12,36,23.20
2018,06,17,12,37,23.20
2018,06,17,12,38,23.20
2018,06,17,12,39,23.20
2018,06,17,12,40,23.20
2018,06,17,12,41,23.20
2018,06,17,12,42,23.30
2018,06,17,12,43,23.30
2018,06,17,12,44,23.30
2018,06,17,12,45,23.40
2018,06,17,12,46,23.40
2018,06,17,12,47,23.40
2018,06,17,12,48,23.40
2018,06,17,12,49,23.40
2018,06,17,12,50,23.40
2018,06,17,12,51,23.50
2018,06,17,12,52,23.50
2018,06,17,12,53,23.60
2018,06,17,12,54,23.60
2018,06,17,12,55,23.70
2018,06,17,12,56,23.80
2018,06,17,12,57,23.80
2018,06,17,12,58,23.80
2018,06,17,12,59,23.80
2018,06,17,13,00,23.80
2018,06,17,13,01,23.70
2018,06,17,13,02,23.70
2018,06,17,13,03,23.70
2018,06,17,13,04,23.70
2018,06,17,13,05,23.70
2018,06,17,13,06,23.70
2018,06,17,13,07,23.80
2018,06,17,13,08,23.80
2018,06,17,13,09,23.80
2018,06,17,13,10,23.90
2018,06,17,13,11,23.90
2018,06,17,13,12,23.90
2018,06,17,13,13,24.00
2018,06,17,13,14,24.00
2018,06,17,13,15,24.10
2018,06,17,13,16,24.20
2018,06,17,13,17,24.20
2018,06,17,13,18,24.30
2018,06,17,13,19,24.30
2018,06,17,13,20,24.40
2018,06,17,13,21,24.40
2018,06,17,13,22,24.50
2018,06,17,13,23,24.50
2018,06,17,13,24,24.60
2018,06,17,13,25,24.60
2018,06,17,13,26,24.70
2018,06,17,13,27,24.70
2018,06,17,13,28,24.70
2018,06,17,13,29,24.70
2018,06,17,13,30,24.70
2018,06,17,13,31,24.70
2018,06,17,13,32,24.70
2018,06,17,13,33,24.70
2018,06,17,13,34,24.70
2018,06,17,13,35,24.80
2018,06,17,13,36,24.80
2018,06,17,13,37,24.90
2018,06,17,13,38,25.00
2018,06,17,13,39,25.10
2018,06,17,13,40,25.20
2018,06,17,13,41,25.20
2018,06,17,13,42,25.30
2018,06,17,13,43,25.40
2018,06,17,13,44,25.40
2018,06,17,13,45,25.50
2018,06,17,13,46,25.60
2018,06,17,13,47,25.60
2018,06,17,13,48,25.70
2018,06,17,13,49,25.70
2018,06,17,13,50,25.70
2018,06,17,13,51,25.80
2018,06,17,13,52,25.80
2018,06,17,13,53,25.80
2018,06,17,13,54,25.80
2018,06,17,13,55,25.80
2018,06,17,13,56,25.80
2018,06,17,13,57,25.80
2018,06,17,13,58,25.80
2018,06,17,13,59,25.90
2018,06,17,14,00,25.90
2018,06,17,14,01,25.90
2018,06,17,14,02,25.90
2018,06,17,14,03,25.90
2018,06,17,14,04,26.00
2018,06,17,14,05,26.00
2018,06,17,14,06,26.10
2018,06,17,14,07,26.10
2018,06,17,14,08,26.10
2018,06,17,14,09,26.10
2018,06,17,14,10,26.20
2018,06,17,14,11,26.20
2018,06,17,14,12,26.20
2018,06,17,14,13,26.20
2018,06,17,14,14,26.10
2018,06,17,14,15,26.10
2018,06,17,14,16,26.10
2018,06,17,14,17,26.10
2018,06,17,14,18,26.10
2018,06,17,14,19,26.10
2018,06,17,14,20,26.10
2018,06,17,14,21,26.10
2018,06,17,14,22,26.10
2018,06,17,14,23,26.10
2018,06,17,14,24,26.10
2018,06,17,14,25,26.10
2018,06,17,14,26,26.10
2018,06,17,14,27,26.10
2018,06,17,14,28,26.20
2018,06,17,14,29,26.20
2018,06,17,14,30,26.20
2018,06,17,14,31,26.20
2018,06,17,14,32,26.30
2018,06,17,14,33,26.30
2018,06,17,14,34,26.30
2018,06,17,14,35,26.30
2018,06,17,14,36,26.40
2018,06,17,14,37,26.40
2018,06,17,14,38,26.40
2018,06,17,14,39,26.40
2018,06,17,14,40,26.40
2018,06,17,14,41,26.50
2018,06,17,14,42,26.50
2018,06,17,14,43,26.50
2018,06,17,14,44,26.60
2018,06,17,14,45,26.60
2018,06,17,14,46,26.60
2018,06,17,14,47,26.70
2018,06,17,14,48,26.70
2018,06,17,14,49,26.70
2018,06,17,14,50,26.70
2018,06,17,14,51,26.80
2018,06,17,14,52,26.80
2018,06,17,14,53,26.80
2018,06,17,14,54,26.80
2018,06,17,14,55,26.80
2018,06,17,14,56,26.70
2018,06,17,14,57,26.70
2018,06,17,14,58,26.70
2018,06,17,14,59,26.60
2018,06,17,15,00,26.60
2018,06,17,15,01,26.60
2018,06,17,15,02,26.60
2018,06,17,15,03,26.60
2018,06,17,15,04,26.60
2018,06,17,15,05,26.60
2018,06,17,15,06,26.60
2018,06,17,15,07,26.60
2018,06,17,15,08,26.50
2018,06,17,15,09,26.50
2018,06,17,15,10,26.60
2018,06,17,15,11,26.60
2018,06,17,15,12,26.60
2018,06,17,15,13,26.70
2018,06,17,15,14,26.70
2018,06,17,15,15,26.80
2018,06,17,15,16,26.80
2018,06,17,15,17,26.80
2018,06,17,15,18,26.90
2018,06,17,15,19,26.90
2018,06,17,15,20,26.90
2018,06,17,15,21,26.90
2018,06,17,15,22,26.90
2018,06,17,15,23,27.00
2018,06,17,15,24,27.00
2018,06,17,15,25,26.90
2018,06,17,15,26,26.90
2018,06,17,15,27,26.90
2018,06,17,15,28,26.90
2018,06,17,15,29,26.90
2018,06,17,15,30,26.90
2018,06,17,15,31,26.90
2018,06,17,15,32,26.90
2018,06,17,15,33,26.90
2018,06,17,15,34,26.90
2018,06,17,15,35,26.90
2018,06,17,15,36,26.90
2018,06,17,15,37,26.90
2018,06,17,15,38,26.90
2018,06,17,15,39,27.00
2018,06,17,15,40,27.00
2018,06,17,15,41,27.10
2018,06,17,15,42,27.10
2018,06,17,15,43,27.20
2018,06,17,15,44,27.20
2018,06,17,15,45,27.30
2018,06,17,15,46,27.30
2018,06,17,15,47,27.30
2018,06,17,15,48,27.40
2018,06,17,15,49,27.40
2018,06,17,15,50,27.40
2018,06,17,15,51,27.40
2018,06,17,15,52,27.40
2018,06,17,15,53,27.30
2018,06,17,15,54,27.30
2018,06,17,15,55,27.30
2018,06,17,15,56,27.20
2018,06,17,15,57,27.20
2018,06,17,15,58,27.20
2018,06,17,15,59,27.20
2018,06,17,16,00,27.20
2018,06,17,16,01,27.20
2018,06,17,16,02,27.30
2018,06,17,16,03,27.30
2018,06,17,16,04,27.30
2018,06,17,16,05,27.30
2018,06,17,16,06,27.30
2018,06,17,16,07,27.30
2018,06,17,16,08,27.30
2018,06,17,16,09,27.30
2018,06,17,16,10,27.40
2018,06,17,16,11,27.40
2018,06,17,16,12,27.40
2018,06,17,16,13,27.40
2018,06,17,16,14,27.40
2018,06,17,16,15,27.40
2018,06,17,16,16,27.40
2018,06,17,16,17,27.40
2018,06,17,16,18,27.40
2018,06,17,16,19,27.40
2018,06,17,16,20,27.40
2018,06,17,16,21,27.40
2018,06,17,16,22,27.40
2018,06,17,16,23,27.40
2018,06,17,16,24,27.50
2018,06,17,16,25,27.50
2018,06,17,16,26,27.50
2018,06,17,16,27,27.50
2018,06,17,16,28,27.50
2018,06,17,16,29,27.50
2018,06,17,16,30,27.60
2018,06,17,16,31,27.60
2018,06,17,16,32,27.60
2018,06,17,16,33,27.60
2018,06,17,16,34,27.60
2018,06,17,16,35,27.70
2018,06,17,16,36,27.70
2018,06,17,16,37,27.70
2018,06,17,16,38,27.70
2018,06,17,16,39,27.80
2018,06,17,16,40,27.80
2018,06,17,16,41,27.80
2018,06,17,16,42,27.80
2018,06,17,16,43,27.70
2018,06,17,16,44,27.70
2018,06,17,16,45,27.70
2018,06,17,16,46,27.60
2018,06,17,16,47,27.60
2018,06,17,16,48,27.60
2018,06,17,16,49,27.50
2018,06,17,16,50,27.50
2018,06,17,16,51,27.40
2018,06,17,16,52,27.40
2018,06,17,16,53,27.40
2018,06,17,16,54,27.40
2018,06,17,16,55,27.40
2018,06,17,16,56,27.40
2018,06,17,16,57,27.30
2018,06,17,16,58,27.30
2018,06,17,16,59,27.30
2018,06,17,17,00,27.40
2018,06,17,17,01,27.40
2018,06,17,17,02,27.40
2018,06,17,17,03,27.40
2018,06,17,17,04,27.50
2018,06,17,17,05,27.60
2018,06,17,17,06,27.70
2018,06,17,17,07,27.70
2018,06,17,17,08,27.80
2018,06,17,17,09,27.80
2018,06,17,17,10,27.80
2018,06,17,17,11,27.90
2018,06,17,17,12,27.90
2018,06,17,17,13,28.00
2018,06,17,17,14,28.00
2018,06,17,17,15,28.10
2018,06,17,17,16,28.10
2018,06,17,17,17,28.20
2018,06,17,17,18,28.20
2018,06,17,17,19,28.20